Regional Weather Roundup
Issued by NWS Northern Indiana

Home | Current Version | Previous Version | Text Only | Print | Product List | Glossary Off
Versions: 1 2 3 4 5 6 7 8 9 10 11 12 13 14 15 16 17 18 19 20 21 22 23 24 25 26 27 28 29 30 31 32 33 34 35 36 37 38 39 40 41 42 43 44 45 46 47 48 49 50

000
ASUS43 KIWX 230900
RWRIWX

KIWX WEATHER ROUNDUP
NATIONAL WEATHER SERVICE NORTHERN INDIANA
500 AM EDT WED AUG 23 2017

NOTE: "FAIR" INDICATES FEW OR NO CLOUDS BELOW 12,000 FEET WITH NO
SIGNIFICANT WEATHER AND/OR OBSTRUCTIONS TO VISIBILITY.

* THESE STATIONS ARE NOT UNDER NWS QUALITY CONTROL. THEY ALSO MAY NOT
  REPORT WEATHER SUCH AS PRECIPITATION OR FOG.

INZ001>027-231000-
NORTHERN INDIANA

CITY           SKY/WX    TMP DP  RH WIND       PRES   REMARKS
MICHIGAN CITY* CLEAR     64  54  68 NW7       30.00S
SOUTH BEND     CLEAR     56  55  97 W7        30.00S
GOSHEN         CLEAR     57  53  86 CALM      29.99S
MONTICELLO*    CLEAR     57  56  94 CALM      30.01S
FORT WAYNE     CLEAR     55  53  93 W7        29.99S
PERU/GRISSOM   CLEAR     59  59 100 W5        30.00S

$$
INZ028>050-231000-
CENTRAL INDIANA

CITY           SKY/WX    TMP DP  RH WIND       PRES   REMARKS
LAFAYETTE      PTCLDY    57  57 100 SW3       30.02R
KOKOMO*        PTCLDY    59  58  96 W5        30.01F
MUNCIE*        PTCLDY    56  53  90 CALM      30.00S FOG
INDIANAPOLIS   PTCLDY    60  57  89 NW8       30.00S

$$
MIZ043>046-050>051-056>058-064>065-071>073-077>080-231000-
SOUTHWEST LOWER MICHIGAN

CITY           SKY/WX    TMP DP  RH WIND       PRES   REMARKS
BATTLE CREEK   CLEAR     59  54  83 W7        29.96S
BENTON HARBOR  CLEAR     68  54  60 NW9       29.98S
COLDWATER*     PTCLDY    56  56  99 SW5       29.97R
HILLSDALE*     CLEAR     57  52  82 W6        29.96S
HOLLAND        CLEAR     66  51  58 NW6       29.96S
GRAND RAPIDS   CLEAR     59  54  83 W7        29.94S
KALAMAZOO      CLEAR     60  52  74 W6        29.97S
STURGIS*       CLEAR     55  53  95 CALM      29.97S
THREE RIVERS*  FAIR      59  54  83 W5        29.97S

$$
OHZ001>008-015>018-024>025-231000-
NORTHWEST OHIO

CITY           SKY/WX    TMP DP  RH WIND       PRES   REMARKS
DEFIANCE       CLEAR     54  52  93 SW3       29.97S
FINDLAY        PTCLDY    56  52  86 SW3       29.96S
TOLEDO EXPRESS CLEAR     57  55  93 W6        29.95S
TOLEDO METCALF CLEAR     57  54  89 SW3       29.95S
LIMA           CLEAR     55  53  93 CALM      29.98S

$$
AND FOR LAKE MICHIGAN COASTAL AND OPEN LAKE BUOY OBSERVATIONS

STATION/POSITION TEMP    WIND        PRES    VSBY  WAVE
                 AIR SEA DIR/SP/G                  HT/PER
                 (F)     (DEG/KT/KT) (MB)    (MI)  (FT/S)
CALUMET HARBOR    64     280/  4/  8 1015.6S
MICHIGAN CITY     69     310/ 17/ 19   N/A
BURNS HARBOR      70     320/ 15/ 19 1016.3R
SAINT JOSEPH      71     330/ 13/ 16 1015.9
SOUTH LAKE BUOY   68 71  320/ 16/ 17 1014.7          4/ 5
4 MI NW BRIDGMAN  70 73  350/ 14/ 19 1015.3R         5/ 5
MICHIGAN CITY     70 73  320/ 16/ 21   N/A           6/ 5

$$
&&




USA.gov is the U.S. government's official web portal to all federal, state and local government web resources and services.